Theta_e
349 351 350 345 348 346 347 349 349 347 347 350 346 348 350 350 349 350 350 346 350 351 349 347 349 352 350 342 348 348 350 349 348 348 347 347 347 349 347 344 343 347 347
349 351 349 349 346 349 346 345 351 347 344 346 345 346 347 349 350 350 347 346 347 348 347 347 346 348 351 349 348 344 347 346 343 345 344 340 343 346 345 341 348 350 348
349 348 350 347 349 350 351 348 350 350 346 348 348 347 347 349 350 350 349 348 347 347 350 349 350 347 347 346 347 346 349 347 348 347 345 340 342 343 344 344 346 348 348
350 349 349 349 349 346 349 352 350 347 349 348 348 347 345 347 349 350 348 348 348 348 349 346 348 349 348 347 347 346 344 345 345 343 341 340 347 348 344 344 344 342 344
351 349 348 350 349 350 349 347 347 348 350 347 347 351 349 347 347 348 350 350 347 347 347 347 347 346 343 344 345 344 345 344 344 343 341 346 344 342 341 341 340 346 348
351 350 349 348 347 347 348 350 347 345 347 348 346 345 348 349 349 347 348 344 346 347 348 348 348 348 345 344 344 344 344 344 344 341 341 342 342 341 340 341 344 343 346
353 351 352 350 349 349 347 346 345 344 345 345 344 345 345 345 344 345 344 343 344 342 343 344 345 345 344 343 343 344 344 343 342 341 339 339 339 339 340 340 339 339 342
349 348 352 352 351 351 350 350 349 349 347 347 347 347 344 342 343 344 342 341 343 342 342 342 341 341 342 342 343 342 341 340 339 337 337 338 339 339 339 338 337 338 338
344 345 346 348 349 350 349 348 348 347 346 344 347 346 343 342 343 343 342 342 342 341 340 341 340 338 336 338 342 338 337 337 338 335 337 338 336 334 335 334 333 337 338
344 346 347 346 346 344 343 343 344 344 345 344 343 344 343 343 343 341 339 340 340 340 338 336 337 338 339 338 337 337 338 341 340 337 334 334 335 334 333 333 332 331 335
344 341 340 339 338 338 338 339 340 343 342 342 343 342 340 340 339 340 340 338 339 339 339 339 337 336 337 338 337 338 339 340 339 338 336 335 331 328 327 326 320 320 318
338 337 338 337 339 337 337 338 336 337 338 338 337 336 334 335 337 337 338 337 337 337 337 337 337 336 334 333 335 336 336 335 336 337 332 332 330 326 325 324 316 313 312
339 337 339 339 339 338 338 336 335 332 334 334 334 336 336 336 333 330 334 335 335 335 331 332 331 325 328 323 327 330 331 332 331 330 330 330 328 327 324 320 315 313 311
340 338 338 338 338 337 336 333 333 334 334 331 330 330 331 329 329 333 334 334 332 331 323 319 316 315 313 312 312 315 315 320 324 326 327 328 327 325 322 316 314 312 313
336 336 335 335 336 334 334 336 334 334 334 334 333 331 331 335 333 332 329 324 322 321 318 316 319 322 322 321 320 318 318 316 315 319 322 320 320 318 316 314 313 310 312
333 334 334 333 332 331 331 331 328 329 330 331 331 330 328 325 318 316 315 315 314 311 310 309 310 320 321 321 322 320 320 319 316 318 318 318 317 316 314 312 311 308 311
317 319 320 321 321 320 321 319 317 315 313 311 311 311 311 311 310 310 310 309 309 309 312 313 312 310 310 315 319 320 320 320 319 318 317 315 314 312 313 312 311 309 310
321 320 320 321 321 321 321 320 320 320 320 319 315 314 313 312 311 311 311 310 311 312 313 313 314 314 314 314 316 319 317 318 317 316 315 314 312 312 310 309 309 310 309
326 325 324 324 322 323 323 322 320 319 318 318 318 318 318 318 316 315 315 315 315 314 313 314 314 314 314 314 314 318 318 318 317 315 314 312 311 310 310 309 309 309 309
322 324 326 325 323 323 322 321 320 321 319 318 319 320 319 318 317 316 316 316 315 315 315 315 314 314 314 314 314 315 318 317 316 315 313 311 310 309 309 308 308 307 308
321 318 312 317 318 319 319 317 318 318 318 317 317 317 315 314 315 315 316 315 315 315 314 315 314 314 314 314 315 315 316 316 315 313 311 310 308 308 307 307 307 307 307
312 313 313 314 314 315 316 316 314 315 316 316 316 315 314 314 315 314 314 314 314 314 314 314 314 314 314 314 314 315 316 315 314 313 311 309 308 307 307 307 306 306 307
313 313 314 314 314 313 315 316 316 316 316 315 314 314 314 314 314 314 313 313 313 313 313 314 313 313 312 313 314 313 313 313 313 310 309 308 307 307 306 306 306 306 306
313 314 314 315 313 315 315 314 314 314 313 313 313 313 313 313 313 313 313 314 314 313 312 312 312 313 312 312 312 310 312 311 309 308 308 307 306 306 305 305 305 306 306
313 313 314 314 314 314 314 313 312 311 311 310 311 311 312 313 314 314 313 313 312 312 311 309 311 311 311 312 312 311 308 308 308 308 306 305 305 304 305 304 304 305 305
313 313 313 314 314 313 312 311 311 311 310 310 309 311 312 312 312 311 310 310 310 311 311 310 310 308 308 309 310 311 311 309 308 307 306 305 303 303 304 303 304 304 303
Wind_Speed
27 27 22 19 18 19 21 18 15 16 18 16 17 15 16 18 18 18 18 14 17 16 12 16 16 12 14 15 13 12 11 10 9 11 9 11 10 9 11 10 13 10 18
27 28 27 23 21 21 17 16 16 14 16 17 16 16 15 16 16 18 18 15 16 17 16 14 16 12 15 12 12 13 12 16 16 18 18 15 15 16 16 9 8 11 10
28 30 27 27 23 21 22 18 18 17 14 14 13 13 13 15 14 14 15 14 16 19 15 15 15 15 16 15 17 15 12 13 15 17 16 14 11 16 14 16 13 11 9
28 30 29 28 26 25 22 17 17 18 14 10 12 10 12 14 12 11 13 15 15 16 16 18 18 17 17 19 18 16 15 16 17 16 16 16 12 9 11 7 7 9 9
29 30 29 26 23 22 23 22 21 14 14 16 12 11 12 11 12 11 14 15 14 13 12 11 14 17 16 17 17 17 17 18 19 17 13 12 13 14 12 9 7 10 3
33 31 28 27 26 24 22 21 19 21 20 21 18 18 15 17 14 16 18 19 17 15 15 15 14 15 17 17 16 15 15 14 11 12 14 16 14 13 11 8 7 6 4
27 26 21 23 25 25 24 23 21 20 19 20 21 21 22 20 21 21 20 19 19 19 17 17 15 15 14 15 10 11 10 10 11 11 12 13 13 13 12 11 13 10 7
20 17 15 19 19 17 18 18 19 20 19 18 20 21 22 23 21 21 22 18 18 18 18 14 15 15 14 11 10 8 8 9 11 12 14 13 12 11 10 10 9 9 7
14 19 24 17 16 14 13 15 16 17 17 18 22 26 24 23 23 20 18 17 18 17 13 13 14 13 12 11 11 11 12 12 10 10 13 11 10 11 11 11 10 9 6
16 17 15 15 11 7 4 7 10 13 18 20 22 25 25 23 21 14 6 8 10 9 3 2 4 5 8 10 17 16 12 10 8 6 7 9 11 11 13 13 13 12 10
15 12 10 8 6 3 3 9 3 7 6 9 13 17 18 17 13 10 10 7 5 4 3 1 2 3 5 6 5 7 10 7 6 8 10 11 7 6 14 8 7 10 8
5 7 7 5 5 5 6 5 8 6 5 0 1 5 10 4 7 5 4 2 5 5 5 5 9 10 11 10 11 11 11 11 12 10 8 6 8 10 14 12 9 10 10
12 9 6 15 9 2 2 6 3 8 10 12 11 10 11 9 8 9 6 5 4 4 4 6 8 9 11 12 12 13 13 13 12 13 11 14 17 18 16 18 15 12 10
14 10 11 11 13 11 8 9 9 8 7 8 7 11 7 12 10 5 3 6 5 5 3 4 7 8 8 9 8 9 7 10 12 13 16 20 20 20 19 17 12 10 10
17 17 15 15 14 9 10 8 5 2 3 5 7 6 1 3 2 2 3 2 4 6 6 8 5 7 11 12 11 11 12 13 11 13 16 17 17 17 15 17 17 13 12
20 17 15 14 14 12 10 11 11 10 9 8 7 5 4 2 0 2 4 5 6 8 9 10 8 9 9 7 12 15 17 13 9 10 10 10 11 11 13 14 13 8 7
22 21 18 16 16 15 14 14 15 14 12 9 8 6 4 3 3 4 5 6 8 8 9 11 10 9 10 14 14 8 8 12 12 10 13 10 11 9 12 12 13 9 10
18 14 14 14 13 11 10 8 9 9 7 6 6 5 5 5 6 7 8 9 9 9 10 11 14 14 15 14 18 12 17 19 18 17 18 20 17 16 16 13 9 10 10
11 11 8 7 8 8 8 7 6 7 4 6 8 6 7 10 10 9 9 10 11 10 7 8 10 12 14 15 14 15 16 13 14 12 11 9 9 11 11 10 12 13 13
5 7 9 4 5 6 3 3 4 4 6 7 6 3 4 9 13 13 13 12 13 15 14 14 15 16 18 19 18 16 14 14 15 18 17 15 12 14 15 11 12 11 9
2 3 3 6 2 4 1 1 1 2 2 3 5 6 8 10 9 10 9 8 11 13 15 15 17 19 19 18 19 16 20 19 15 14 11 9 13 15 12 10 9 9 11
2 1 1 1 1 2 3 3 2 3 3 3 5 7 9 11 8 10 11 12 13 14 16 16 16 15 14 17 18 17 16 15 12 13 9 8 9 10 11 10 9 9 9
2 2 2 3 2 5 6 5 2 2 3 4 6 7 9 10 10 11 13 14 15 15 14 12 13 14 17 18 21 21 25 20 16 8 10 6 6 8 10 10 9 9 9
5 4 4 3 5 4 4 3 2 3 3 5 6 7 8 9 9 10 10 10 10 10 12 13 18 21 19 21 22 25 19 21 9 10 9 10 5 7 13 11 8 8 7
6 6 6 5 5 4 4 3 2 3 4 5 6 7 7 9 9 10 11 12 14 14 17 22 16 22 24 18 18 19 7 11 16 17 11 10 8 6 6 7 8 7 5
7 7 7 6 5 4 3 3 4 6 10 11 11 9 8 7 8 12 15 15 12 13 13 16 21 21 23 18 20 18 16 17 22 23 25 14 0 7 7 7 7 5 3
Wind_Direction
196 207 210 214 217 223 220 218 224 234 239 240 246 252 246 244 242 238 243 232 251 251 258 250 262 269 283 263 266 286 304 321 313 274 304 300 332 320 307 328 338 296 294
199 202 208 212 211 224 223 233 249 253 251 252 255 256 257 251 246 248 253 250 245 252 261 274 256 266 276 284 295 290 297 293 289 293 289 300 297 302 292 294 323 307 281
195 200 204 208 211 214 224 220 234 249 248 243 243 254 261 265 259 259 264 261 255 254 258 264 265 263 258 257 255 269 265 274 278 287 294 296 322 303 315 293 277 304 279
195 200 202 204 207 212 215 216 220 244 247 253 243 258 259 252 250 267 272 277 272 260 268 262 260 258 267 271 272 275 277 270 275 281 279 289 309 314 332 302 298 298 296
195 197 200 210 208 210 215 223 232 227 237 247 244 247 262 273 261 254 261 269 276 270 276 285 282 274 270 267 272 266 264 272 277 283 282 296 302 301 308 297 298 308 227
196 196 200 206 208 212 217 220 225 224 230 233 228 231 232 238 242 252 257 265 270 268 263 257 256 272 277 277 269 270 271 274 273 278 285 294 291 294 291 288 259 296 249
190 187 193 206 211 214 219 229 237 241 245 246 243 236 241 244 247 258 260 260 265 265 263 260 265 266 269 269 271 263 265 264 273 281 285 288 288 296 292 284 288 288 291
211 176 212 207 214 214 220 228 239 247 247 251 249 243 249 262 263 262 268 263 256 255 263 263 272 279 274 266 277 263 264 272 279 285 288 289 287 295 296 297 296 281 276
208 213 223 214 205 204 217 229 242 249 251 259 253 258 260 262 262 258 262 259 246 249 258 266 267 269 278 272 256 273 286 285 280 283 280 276 281 291 290 285 263 270 300
195 184 177 176 171 172 231 254 254 251 243 255 259 256 254 251 249 245 245 241 240 237 207 333 300 283 292 285 260 267 287 278 273 278 272 277 284 281 276 275 269 262 248
183 168 170 175 197 92 4 9 273 248 251 251 255 256 247 226 191 211 213 220 212 161 137 73 343 306 312 315 291 255 251 245 266 299 297 303 315 325 294 307 292 280 267
164 187 189 162 158 145 44 22 80 86 85 236 156 119 89 89 173 161 143 258 234 223 243 288 296 300 299 283 269 266 265 261 248 246 298 269 245 233 260 293 309 297 285
197 206 207 170 149 123 181 156 88 87 112 100 106 100 100 92 92 82 28 4 358 318 276 285 291 291 286 284 281 278 272 267 252 219 243 234 229 240 269 286 294 293 293
176 159 142 147 157 155 148 138 130 133 131 124 133 115 116 115 138 160 260 269 300 302 309 312 311 312 306 299 294 294 280 257 243 241 243 240 249 262 274 279 294 296 302
121 117 125 125 130 138 142 149 155 177 189 173 196 198 216 236 228 258 267 333 323 309 307 309 309 338 333 334 325 304 287 281 274 249 251 257 262 268 273 274 279 266 257
106 109 112 115 117 113 113 115 109 103 104 111 117 130 135 175 227 332 343 338 326 319 320 315 297 270 271 304 303 307 315 315 296 264 270 275 285 283 290 282 294 292 244
101 99 92 84 84 85 84 78 82 82 80 80 86 89 85 72 36 11 357 344 338 338 350 346 337 328 303 266 261 274 294 283 276 265 272 265 281 265 274 262 276 278 259
86 97 113 128 124 118 105 70 64 61 58 53 54 40 20 3 349 339 334 333 334 337 341 346 333 322 324 317 307 301 272 269 279 283 282 282 266 267 271 284 261 262 262
112 109 96 77 88 90 74 78 64 64 72 32 30 30 28 15 6 348 340 345 342 335 321 310 307 307 307 299 290 294 279 259 265 283 285 288 270 271 273 265 271 268 262
60 143 132 120 60 75 79 76 345 336 20 12 356 283 350 356 352 342 329 325 330 335 333 333 331 317 306 299 293 294 277 267 271 273 266 272 279 268 260 258 268 270 291
80 30 75 114 49 162 153 317 324 15 359 355 341 335 338 343 326 321 325 342 319 316 316 313 309 307 306 310 316 292 270 269 266 270 288 268 280 278 280 268 269 272 271
119 177 150 166 106 181 215 181 104 47 15 356 346 350 346 339 343 332 325 323 324 319 314 311 310 303 298 307 297 292 271 271 274 258 249 255 264 285 288 275 270 267 265
168 137 125 155 117 85 67 59 59 17 3 340 329 324 331 326 320 320 318 316 315 308 302 309 309 315 317 311 298 291 284 265 288 267 243 252 273 275 273 274 271 267 265
171 164 147 148 182 67 136 94 58 34 358 340 335 329 323 321 318 316 316 300 296 327 331 320 326 305 302 301 297 285 297 270 282 253 245 221 232 299 285 256 265 265 246
165 160 145 140 135 132 115 93 70 19 349 337 325 323 325 318 301 314 313 325 329 326 317 315 336 309 310 299 302 304 273 255 252 255 222 254 228 268 280 234 272 254 251
169 162 155 149 142 130 106 72 33 356 5 357 348 342 333 318 321 307 312 314 315 315 322 323 309 312 315 310 299 291 271 258 268 256 262 274 219 258 256 250 266 247 256